Back to catalog

COSMOS 566

AliveMilitaryLEO
NORAD 6677·PAYLOAD·🇷🇺 Russia

Launched Jun 8, 1973 from Plesetsk Cosmodrome

Loading…

Next Passes (next 24 hours)

TLE

FreshSource: Space-Track

Epoch: Sep 14, 2026, 08:12 UTC

1 06677U 73037C   26257.34232968 -.00000006  00000-0  62590-4 0  9998
2 06677  74.0164 115.4713 0031737 339.5174 132.3074 12.51705734433628

Track COSMOS 566 in real time with AllMySat

Download on the App Store